Shin Chun — VRFD2 — position and weather

sailwx.info

Track history (hours):
 
Tides and Currents Weather Stations Pressure Air Temp Water Temp Dewpoint Dewpoint Depression Visibility Wind Speed Wind Dir Waves Ship Positions

Shin Chun

Last reported at 2014-Oct-21 00:33 UTC. Time now 2014-Oct-21 00:37 UTC.
Position N 22°20' E 117°32'.

Length 152 m; draft 5.8 m.

Type: Cargo ship. MMSI: 477218300.

Date/timePositionNaut miles runAvg speedWind from/ knotsBaromVisibWave heightAir tempDewpointWater temp
2014-Oct-21 00:33N 22°20' E 117°32'1614.3
2014-Oct-20 23:27N 22°19' E 117°48'1414.6
2014-Oct-20 22:28N 22°21' E 118°04'1414.6
2014-Oct-20 21:29N 22°23' E 118°19'1414.5
2014-Oct-20 20:32N 22°25' E 118°34'1414.3
2014-Oct-20 19:33N 22°27' E 118°49'1414.1
2014-Oct-20 18:33N 22°29' E 119°04'1414.1
2014-Oct-20 17:32N 22°31' E 119°19'1413.7
2014-Oct-20 16:31N 22°33' E 119°35'1414.2
2014-Oct-20 15:33N 22°35' E 119°49'1414.3
2014-Oct-20 14:33N 22°37' E 120°05'1211.8
2014-Oct-20 13:33N 22°36' E 120°17'1 0.4
2014-Oct-20 10:13N 22°35' E 120°18'0 0.0
2014-Oct-20 09:25N 22°35' E 120°18'0 0.1
2014-Oct-20 07:33N 22°35' E 120°18'10 9.8
2014-Oct-20 06:34N 22°39' E 120°09'1414.0
2014-Oct-20 05:33N 22°47' E 119°56'1414.0
2014-Oct-20 04:33N 22°55' E 119°43'1413.8
2014-Oct-20 03:33N 23°03' E 119°31'1514.6
2014-Oct-20 02:33N 23°13' E 119°20'1413.9
2014-Oct-20 01:33N 23°24' E 119°10'1312.9
2014-Oct-20 00:33N 23°33' E 119°01'3912.9
2014-Oct-19 21:31N 24°01' E 118°31'1313.1
2014-Oct-19 20:33N 24°10' E 118°21'1413.5
2014-Oct-19 19:33N 24°20' E 118°11'1111.2
2014-Oct-19 18:33N 24°29' E 118°04'2 2.1
2014-Oct-19 17:33N 24°31' E 118°05'0 0.0
2014-Oct-19 16:27N 24°31' E 118°05'0 0.0
2014-Oct-19 15:30N 24°31' E 118°05'0 0.1
2014-Oct-19 14:33N 24°31' E 118°05'0 0.0
2014-Oct-19 13:24N 24°31' E 118°05'0 0.0
2014-Oct-19 12:21N 24°31' E 118°05'0 0.0
2014-Oct-19 11:33N 24°31' E 118°05'0 0.0
2014-Oct-19 10:27N 24°31' E 118°05'0 0.1
2014-Oct-19 09:33N 24°31' E 118°05'0 0.0
2014-Oct-19 08:33N 24°31' E 118°05'0 0.0
2014-Oct-19 07:27N 24°31' E 118°05'3 2.9
2014-Oct-19 06:33N 24°29' E 118°04'1010.1
2014-Oct-19 05:33N 24°20' E 118°10'1313.1
2014-Oct-19 04:34N 24°11' E 118°20'1514.8
2014-Oct-19 03:34N 24°00' E 118°31'4914.5
2014-Oct-19 00:13N 23°26' E 119°08'1015.1
2014-Oct-18 23:31N 23°18' E 119°16'4715.5
2014-Oct-18 20:28N 22°48' E 119°56'1416.0
2014-Oct-18 19:33N 22°40' E 120°09'10 9.9
2014-Oct-18 18:33N 22°35' E 120°18'0 0.0
2014-Oct-18 13:23N 22°35' E 120°18'0 0.0
2014-Oct-18 12:20N 22°35' E 120°18'0 0.0
2014-Oct-18 10:29N 22°35' E 120°18'0 0.0
2014-Oct-18 09:29N 22°35' E 120°18'0 0.0
2014-Oct-18 08:17N 22°35' E 120°18'0 0.0
2014-Oct-18 07:29N 22°35' E 120°18'0 0.0
2014-Oct-18 06:29N 22°35' E 120°18'0 0.0
2014-Oct-18 04:26N 22°35' E 120°18'0 0.0
2014-Oct-18 03:32N 22°35' E 120°18'3 3.3
2014-Oct-18 02:33N 22°37' E 120°16'1111.4
2014-Oct-18 01:33N 22°44' E 120°06'1312.6
2014-Oct-18 00:33N 22°55' E 119°58'19112.6
2014-Oct-17 09:23N 26°05' E 119°45'9 9.1
2014-Oct-17 08:22N 26°08' E 119°35'8 9.7
2014-Oct-17 07:33N 26°02' E 119°30'2 1.5
2014-Oct-17 06:24N 26°00' E 119°29'0 0.0
2014-Oct-17 05:30N 26°00' E 119°29'0 0.0
2014-Oct-17 04:30N 26°00' E 119°29'0 0.0
2014-Oct-17 03:30N 26°00' E 119°29'0 0.0
2014-Oct-17 02:30N 26°00' E 119°29'0 0.0
2014-Oct-17 01:30N 26°00' E 119°29'0 0.0
2014-Oct-17 00:30N 26°00' E 119°29'0 0.0
2014-Oct-16 23:30N 26°00' E 119°29'0 0.0
2014-Oct-16 22:30N 26°00' E 119°29'0 0.0
2014-Oct-16 21:18N 26°00' E 119°29'0 0.0
2014-Oct-16 20:24N 26°00' E 119°29'0 0.0
2014-Oct-16 19:30N 26°00' E 119°29'0 0.0
2014-Oct-16 18:30N 26°00' E 119°29'0 0.0
2014-Oct-16 17:30N 26°00' E 119°29'0 0.0
2014-Oct-16 16:30N 26°00' E 119°29'0 0.0
2014-Oct-16 15:30N 26°00' E 119°29'0 0.0
2014-Oct-16 14:30N 26°00' E 119°29'0 0.0
2014-Oct-16 13:29N 26°00' E 119°29'0 0.0
2014-Oct-16 12:29N 26°00' E 119°29'0 0.0
2014-Oct-16 11:29N 26°00' E 119°29'0 0.0
2014-Oct-16 10:29N 26°00' E 119°29'0 0.0
2014-Oct-16 09:23N 26°00' E 119°29'2 2.9
2014-Oct-16 08:33N 26°02' E 119°30'11 7.5
2014-Oct-16 07:08N 26°06' E 119°42'5 9.1
2014-Oct-16 06:32N 26°05' E 119°48'48 6.9
2014-Oct-15 23:30N 25°19' E 119°32'1511.3
2014-Oct-15 22:11N 25°25' E 119°17'11 0.5
2014-Oct-15 01:22N 25°19' E 119°28'156 4.8
2014-Oct-13 17:13N 22°47' E 120°05'913.7
2014-Oct-13 16:32N 22°40' E 120°11'8 4.1
2014-Oct-13 14:28N 22°35' E 120°18'0 0.0
2014-Oct-13 13:04N 22°35' E 120°18'0 0.0
2014-Oct-13 11:22N 22°35' E 120°18'0 0.0
2014-Oct-13 10:28N 22°35' E 120°18'0 0.0
2014-Oct-13 09:28N 22°35' E 120°18'0 0.0
2014-Oct-13 08:28N 22°35' E 120°18'0 0.0
2014-Oct-13 07:22N 22°35' E 120°18'0 0.0
2014-Oct-13 06:28N 22°35' E 120°18'0 0.0
2014-Oct-13 05:33N 22°35' E 120°18'7 7.2
2014-Oct-13 04:33N 22°38' E 120°11'1312.7
2014-Oct-13 03:33N 22°45' E 119°60'1312.7
2014-Oct-13 02:32N 22°52' E 119°48'10312.9
2014-Oct-12 18:33N 24°04' E 118°27'1312.9
2014-Oct-12 17:34N 24°13' E 118°18'1212.3
2014-Oct-12 16:33N 24°22' E 118°08'9 8.6
2014-Oct-12 15:33N 24°30' E 118°04'2 1.4
2014-Oct-12 14:21N 24°31' E 118°05'0 0.0
2014-Oct-12 13:06N 24°31' E 118°05'0 0.0
2014-Oct-12 12:33N 24°31' E 118°05'0 0.0
2014-Oct-12 11:26N 24°31' E 118°05'0 0.0
2014-Oct-12 10:29N 24°31' E 118°05'0 0.0
2014-Oct-12 09:29N 24°31' E 118°05'0 0.0
2014-Oct-12 08:29N 24°31' E 118°05'0 0.0
2014-Oct-12 07:32N 24°31' E 118°05'0 0.0
2014-Oct-12 06:32N 24°31' E 118°05'0 0.0
2014-Oct-12 05:32N 24°31' E 118°05'0 0.0
2014-Oct-12 04:20N 24°31' E 118°05'0 0.0
2014-Oct-12 03:32N 24°31' E 118°05'0 0.0
2014-Oct-12 02:26N 24°31' E 118°05'3 2.9
2014-Oct-12 01:33N 24°29' E 118°04'1110.8
2014-Oct-12 00:33N 24°20' E 118°11'1313.0
2014-Oct-11 23:33N 24°11' E 118°21'1313.1
2014-Oct-11 22:33N 24°01' E 118°30'10912.1
2014-Oct-11 13:33N 22°47' E 119°57'1313.4
2014-Oct-11 12:33N 22°40' E 120°10'9 9.4
2014-Oct-11 11:33N 22°35' E 120°18'0 0.0
2014-Oct-11 10:25N 22°35' E 120°18'0 0.0
2014-Oct-11 09:31N 22°35' E 120°18'0 0.0
2014-Oct-11 08:31N 22°35' E 120°18'0 0.0
2014-Oct-11 07:25N 22°35' E 120°18'0 0.0
2014-Oct-11 06:13N 22°35' E 120°18'0 0.0
2014-Oct-11 05:31N 22°35' E 120°18'0 0.0
2014-Oct-11 04:31N 22°35' E 120°18'0 0.0
2014-Oct-11 03:31N 22°35' E 120°18'0 0.0
2014-Oct-11 02:31N 22°35' E 120°18'4 4.5
2014-Oct-11 01:33N 22°37' E 120°15'  
Track history (hours):
 
Tides and Currents Weather Stations Pressure Air Temp Water Temp Dewpoint Dewpoint Depression Visibility Wind Speed Wind Dir Waves Ship Positions

Shin Chun

Last reported at 2014-Oct-21 00:33 UTC. Time now 2014-Oct-21 00:37 UTC.
Position N 22°20' E 117°32'.

Length 152 m; draft 5.8 m.

Type: Cargo ship. MMSI: 477218300.

Date/timePositionNaut miles runAvg speedWind from/ knotsBaromVisibWave heightAir tempDewpointWater temp
2014-Oct-21 00:33N 22°20' E 117°32'1614.3
2014-Oct-20 23:27N 22°19' E 117°48'1414.6
2014-Oct-20 22:28N 22°21' E 118°04'1414.6
2014-Oct-20 21:29N 22°23' E 118°19'1414.5
2014-Oct-20 20:32N 22°25' E 118°34'1414.3
2014-Oct-20 19:33N 22°27' E 118°49'1414.1
2014-Oct-20 18:33N 22°29' E 119°04'1414.1
2014-Oct-20 17:32N 22°31' E 119°19'1413.7
2014-Oct-20 16:31N 22°33' E 119°35'1414.2
2014-Oct-20 15:33N 22°35' E 119°49'1414.3
2014-Oct-20 14:33N 22°37' E 120°05'1211.8
2014-Oct-20 13:33N 22°36' E 120°17'1 0.4
2014-Oct-20 10:13N 22°35' E 120°18'0 0.0
2014-Oct-20 09:25N 22°35' E 120°18'0 0.1
2014-Oct-20 07:33N 22°35' E 120°18'10 9.8
2014-Oct-20 06:34N 22°39' E 120°09'1414.0
2014-Oct-20 05:33N 22°47' E 119°56'1414.0
2014-Oct-20 04:33N 22°55' E 119°43'1413.8
2014-Oct-20 03:33N 23°03' E 119°31'1514.6
2014-Oct-20 02:33N 23°13' E 119°20'1413.9
2014-Oct-20 01:33N 23°24' E 119°10'1312.9
2014-Oct-20 00:33N 23°33' E 119°01'3912.9
2014-Oct-19 21:31N 24°01' E 118°31'1313.1
2014-Oct-19 20:33N 24°10' E 118°21'1413.5
2014-Oct-19 19:33N 24°20' E 118°11'1111.2
2014-Oct-19 18:33N 24°29' E 118°04'2 2.1
2014-Oct-19 17:33N 24°31' E 118°05'0 0.0
2014-Oct-19 16:27N 24°31' E 118°05'0 0.0
2014-Oct-19 15:30N 24°31' E 118°05'0 0.1
2014-Oct-19 14:33N 24°31' E 118°05'0 0.0
2014-Oct-19 13:24N 24°31' E 118°05'0 0.0
2014-Oct-19 12:21N 24°31' E 118°05'0 0.0
2014-Oct-19 11:33N 24°31' E 118°05'0 0.0
2014-Oct-19 10:27N 24°31' E 118°05'0 0.1
2014-Oct-19 09:33N 24°31' E 118°05'0 0.0
2014-Oct-19 08:33N 24°31' E 118°05'0 0.0
2014-Oct-19 07:27N 24°31' E 118°05'3 2.9
2014-Oct-19 06:33N 24°29' E 118°04'1010.1
2014-Oct-19 05:33N 24°20' E 118°10'1313.1
2014-Oct-19 04:34N 24°11' E 118°20'1514.8
2014-Oct-19 03:34N 24°00' E 118°31'4914.5
2014-Oct-19 00:13N 23°26' E 119°08'1015.1
2014-Oct-18 23:31N 23°18' E 119°16'4715.5
2014-Oct-18 20:28N 22°48' E 119°56'1416.0
2014-Oct-18 19:33N 22°40' E 120°09'10 9.9
2014-Oct-18 18:33N 22°35' E 120°18'0 0.0
2014-Oct-18 13:23N 22°35' E 120°18'0 0.0
2014-Oct-18 12:20N 22°35' E 120°18'0 0.0
2014-Oct-18 10:29N 22°35' E 120°18'0 0.0
2014-Oct-18 09:29N 22°35' E 120°18'0 0.0
2014-Oct-18 08:17N 22°35' E 120°18'0 0.0
2014-Oct-18 07:29N 22°35' E 120°18'0 0.0
2014-Oct-18 06:29N 22°35' E 120°18'0 0.0
2014-Oct-18 04:26N 22°35' E 120°18'0 0.0
2014-Oct-18 03:32N 22°35' E 120°18'3 3.3
2014-Oct-18 02:33N 22°37' E 120°16'1111.4
2014-Oct-18 01:33N 22°44' E 120°06'1312.6
2014-Oct-18 00:33N 22°55' E 119°58'19112.6
2014-Oct-17 09:23N 26°05' E 119°45'9 9.1
2014-Oct-17 08:22N 26°08' E 119°35'8 9.7
2014-Oct-17 07:33N 26°02' E 119°30'2 1.5
2014-Oct-17 06:24N 26°00' E 119°29'0 0.0
2014-Oct-17 05:30N 26°00' E 119°29'0 0.0
2014-Oct-17 04:30N 26°00' E 119°29'0 0.0
2014-Oct-17 03:30N 26°00' E 119°29'0 0.0
2014-Oct-17 02:30N 26°00' E 119°29'0 0.0
2014-Oct-17 01:30N 26°00' E 119°29'0 0.0
2014-Oct-17 00:30N 26°00' E 119°29'0 0.0
2014-Oct-16 23:30N 26°00' E 119°29'0 0.0
2014-Oct-16 22:30N 26°00' E 119°29'0 0.0
2014-Oct-16 21:18N 26°00' E 119°29'0 0.0
2014-Oct-16 20:24N 26°00' E 119°29'0 0.0
2014-Oct-16 19:30N 26°00' E 119°29'0 0.0
2014-Oct-16 18:30N 26°00' E 119°29'0 0.0
2014-Oct-16 17:30N 26°00' E 119°29'0 0.0
2014-Oct-16 16:30N 26°00' E 119°29'0 0.0
2014-Oct-16 15:30N 26°00' E 119°29'0 0.0
2014-Oct-16 14:30N 26°00' E 119°29'0 0.0
2014-Oct-16 13:29N 26°00' E 119°29'0 0.0
2014-Oct-16 12:29N 26°00' E 119°29'0 0.0
2014-Oct-16 11:29N 26°00' E 119°29'0 0.0
2014-Oct-16 10:29N 26°00' E 119°29'0 0.0
2014-Oct-16 09:23N 26°00' E 119°29'2 2.9
2014-Oct-16 08:33N 26°02' E 119°30'11 7.5
2014-Oct-16 07:08N 26°06' E 119°42'5 9.1
2014-Oct-16 06:32N 26°05' E 119°48'48 6.9
2014-Oct-15 23:30N 25°19' E 119°32'1511.3
2014-Oct-15 22:11N 25°25' E 119°17'11 0.5
2014-Oct-15 01:22N 25°19' E 119°28'156 4.8
2014-Oct-13 17:13N 22°47' E 120°05'913.7
2014-Oct-13 16:32N 22°40' E 120°11'8 4.1
2014-Oct-13 14:28N 22°35' E 120°18'0 0.0
2014-Oct-13 13:04N 22°35' E 120°18'0 0.0
2014-Oct-13 11:22N 22°35' E 120°18'0 0.0
2014-Oct-13 10:28N 22°35' E 120°18'0 0.0
2014-Oct-13 09:28N 22°35' E 120°18'0 0.0
2014-Oct-13 08:28N 22°35' E 120°18'0 0.0
2014-Oct-13 07:22N 22°35' E 120°18'0 0.0
2014-Oct-13 06:28N 22°35' E 120°18'0 0.0
2014-Oct-13 05:33N 22°35' E 120°18'7 7.2
2014-Oct-13 04:33N 22°38' E 120°11'1312.7
2014-Oct-13 03:33N 22°45' E 119°60'1312.7
2014-Oct-13 02:32N 22°52' E 119°48'10312.9
2014-Oct-12 18:33N 24°04' E 118°27'1312.9
2014-Oct-12 17:34N 24°13' E 118°18'1212.3
2014-Oct-12 16:33N 24°22' E 118°08'9 8.6
2014-Oct-12 15:33N 24°30' E 118°04'2 1.4
2014-Oct-12 14:21N 24°31' E 118°05'0 0.0
2014-Oct-12 13:06N 24°31' E 118°05'0 0.0
2014-Oct-12 12:33N 24°31' E 118°05'0 0.0
2014-Oct-12 11:26N 24°31' E 118°05'0 0.0
2014-Oct-12 10:29N 24°31' E 118°05'0 0.0
2014-Oct-12 09:29N 24°31' E 118°05'0 0.0
2014-Oct-12 08:29N 24°31' E 118°05'0 0.0
2014-Oct-12 07:32N 24°31' E 118°05'0 0.0
2014-Oct-12 06:32N 24°31' E 118°05'0 0.0
2014-Oct-12 05:32N 24°31' E 118°05'0 0.0
2014-Oct-12 04:20N 24°31' E 118°05'0 0.0
2014-Oct-12 03:32N 24°31' E 118°05'0 0.0
2014-Oct-12 02:26N 24°31' E 118°05'3 2.9
2014-Oct-12 01:33N 24°29' E 118°04'1110.8
2014-Oct-12 00:33N 24°20' E 118°11'1313.0
2014-Oct-11 23:33N 24°11' E 118°21'1313.1
2014-Oct-11 22:33N 24°01' E 118°30'10912.1
2014-Oct-11 13:33N 22°47' E 119°57'1313.4
2014-Oct-11 12:33N 22°40' E 120°10'9 9.4
2014-Oct-11 11:33N 22°35' E 120°18'0 0.0
2014-Oct-11 10:25N 22°35' E 120°18'0 0.0
2014-Oct-11 09:31N 22°35' E 120°18'0 0.0
2014-Oct-11 08:31N 22°35' E 120°18'0 0.0
2014-Oct-11 07:25N 22°35' E 120°18'0 0.0
2014-Oct-11 06:13N 22°35' E 120°18'0 0.0
2014-Oct-11 05:31N 22°35' E 120°18'0 0.0
2014-Oct-11 04:31N 22°35' E 120°18'0 0.0
2014-Oct-11 03:31N 22°35' E 120°18'0 0.0
2014-Oct-11 02:31N 22°35' E 120°18'4 4.5
2014-Oct-11 01:33N 22°37' E 120°15'  

Dump ship's entire track history